This demonstration page uses our WeatherBlox Daily Observations layout. Learn more.

Hourly Observations for October 27, 2017

Temp ( °F °C ) Dew Point ( °F °C ) Humidity (%) Winds ( mph kmh ) Pressure ( in mb ) Visibility ( mi km ) Precip ( " mm )
12:54 am 00:54 Cloudy 38 3.3 21 -6.1 51 51 undefined N/A 30.12 1020 10 16.09344 0 0
1:54 am 01:54 Cloudy 37 2.8 20 -6.7 50 50 undefined N/A 30.12 1020 10 16.09344 0 0
2:54 am 02:54 Cloudy 37 2.8 20 -6.7 50 50 undefined N/A 30.12 1020 10 16.09344 0 0
3:54 am 03:54 Cloudy 36 2.2 18 -7.8 48 48 undefined N/A 30.12 1020 10 16.09344 0 0
4:54 am 04:54 Cloudy 36 2.2 18 -7.8 48 48 undefined N/A 30.12 1020 10 16.09344 0 0
5:54 am 05:54 Cloudy 35 1.7 19 -7.2 52 52 undefined N/A 30.12 1020 10 16.09344 0 0
6:54 am 06:54 Clear 33 0.6 18 -7.8 54 54 NNW 20 31 30.12 1020 10 16.09344 0 0
7:54 am 07:54 Sunny 32 0 18 -7.8 56 56 undefined N/A 30.12 1020 10 16.09344 0 0
8:54 am 08:54 Partly Cloudy 33 0.6 18 -7.8 54 54 NW 14 22 30.15 1021 10 16.09344 0 0
9:54 am 09:54 Cloudy 34 1.1 19 -7.2 54 54 NW 16 26 30.15 1021 10 16.09344 0 0
10:54 am 10:54 Cloudy 35 1.7 19 -7.2 52 52 NNW 21 33 30.15 1021 10 16.09344 0 0
11:54 am 11:54 Partly Cloudy 37 2.8 20 -6.7 50 50 NNW 20 31 30.15 1021 10 16.09344 0 0
12:54 pm 12:54 Partly Cloudy 38 3.3 20 -6.7 48 48 NW 26 43 30.15 1021 10 16.09344 0 0
1:54 pm 13:54 Mostly Cloudy 40 4.4 21 -6.1 47 47 NNW 23 37 30.15 1021 10 16.09344 0.001 0.001
2:54 pm 14:54 Cloudy 38 3.3 20 -6.7 48 48 NNW 21 33 30.12 1020 10 16.09344 0.001 0.001
3:54 pm 15:54 Cloudy 39 3.9 20 -6.7 46 46 NNW 17 28 30.15 1021 10 16.09344 0 0
4:54 pm 16:54 Cloudy 38 3.3 20 -6.7 48 48 NNW 22 35 30.15 1021 10 16.09344 0 0
5:54 pm 17:54 Sunny 37 2.8 19 -7.2 48 48 NNW 20 31 30.15 1021 10 16.09344 0 0
6:54 pm 18:54 Clear 36 2.2 20 -6.7 52 52 NNW 13 20 30.18 1022 10 16.09344 0 0
7:54 pm 19:54 Clear 34 1.1 20 -6.7 56 56 NW 7 11 30.18 1022 10 16.09344 0 0
8:54 pm 20:54 Clear 32 0 20 -6.7 61 61 WNW 5 7 30.18 1022 10 16.09344 0 0
9:54 pm 21:54 Clear 31 -0.6 20 -6.7 64 64 NW 6 9 30.18 1022 10 16.09344 0 0
10:54 pm 22:54 Clear 31 -0.6 20 -6.7 64 64 NW 10 17 30.18 1022 10 16.09344 0 0
11:54 pm 23:54 Clear 30 -1.1 20 -6.7 66 66 NW 9 15 30.15 1021 10 16.09344 0 0

Powered by AerisWeather